CSC8199 ZLDH-ZUUU

Flight info

Callsign CSC8199
Flight time 2h 12m
Altitude 35100
Route VIKUP1 VIKUP W191 DNC W565 BIGUX B330 MEXAD MEXAD6K
Aircraft A320/M-SDE3FGHIRWY/LB1

Departure

Time 2026-05-05 12:23
Airport Dunhuang Mogao International Airport (ZLDH)

Arrival

Time 2026-05-05 14:35
Airport Chengdu Shuangliu International Airport (ZUUU)
Time Latitude Longitude Altitude Speed Heading
2026-05-05 11:53 40.16456 94.80464 3672 ft 0 kts 86°
2026-05-05 12:14 40.16456 94.80469 3673 ft 3 kts 88°
2026-05-05 12:14 40.16422 94.80481 3673 ft 10 kts 227°
2026-05-05 12:15 40.16410 94.80418 3674 ft 1 kts 263°
2026-05-05 12:15 40.16408 94.80404 3674 ft 0 kts 263°
2026-05-05 12:15 40.16408 94.80403 3674 ft 1 kts 263°
2026-05-05 12:15 40.16404 94.80347 3675 ft 12 kts 265°
2026-05-05 12:16 40.16388 94.80249 3674 ft 8 kts 229°
2026-05-05 12:16 40.16345 94.80240 3673 ft 6 kts 177°
2026-05-05 12:16 40.16311 94.80245 3674 ft 4 kts 174°
2026-05-05 12:16 40.16284 94.80248 3674 ft 4 kts 174°
2026-05-05 12:17 40.16281 94.80249 3674 ft 0 kts 174°
2026-05-05 12:18 40.16280 94.80249 3674 ft 0 kts 174°
2026-05-05 12:18 40.16267 94.80251 3673 ft 3 kts 174°
2026-05-05 12:18 40.16244 94.80254 3673 ft 4 kts 174°
2026-05-05 12:18 40.16224 94.80256 3673 ft 0 kts 174°
2026-05-05 12:19 40.16221 94.80257 3673 ft 0 kts 174°
2026-05-05 12:21 40.16220 94.80257 3673 ft 0 kts 174°
2026-05-05 12:21 40.16199 94.80253 3674 ft 6 kts 212°
2026-05-05 12:21 40.16172 94.80137 3672 ft 22 kts 263°
2026-05-05 12:21 40.16092 94.79901 3672 ft 37 kts 263°
2026-05-05 12:22 40.16067 94.79532 3672 ft 41 kts 259°
2026-05-05 12:22 40.16087 94.79318 3676 ft 6 kts 276°
2026-05-05 12:22 40.16072 94.79289 3674 ft 2 kts 184°
2026-05-05 12:22 40.16061 94.79298 3674 ft 2 kts 134°
2026-05-05 12:23 40.16059 94.79482 3673 ft 57 kts 82°
2026-05-05 12:23 40.16132 94.80355 3675 ft 133 kts 84°
2026-05-05 12:23 40.16367 94.81753 3902 ft 173 kts 72°
2026-05-05 12:23 40.16584 94.83338 4732 ft 181 kts 78°
2026-05-05 12:24 40.16732 94.84988 5205 ft 190 kts 78°
2026-05-05 12:24 40.16884 94.86811 5383 ft 213 kts 79°
2026-05-05 12:24 40.17084 94.88845 5604 ft 238 kts 78°
2026-05-05 12:24 40.17332 94.91088 5910 ft 261 kts 77°
2026-05-05 12:25 40.17609 94.93521 6362 ft 276 kts 77°
2026-05-05 12:25 40.17885 94.96025 7102 ft 279 kts 78°
2026-05-05 12:25 40.18154 94.98514 7886 ft 282 kts 78°
2026-05-05 12:25 40.18443 95.01064 8632 ft 286 kts 78°
2026-05-05 12:26 40.18758 95.03645 9368 ft 290 kts 78°
2026-05-05 12:26 40.19092 95.06270 10084 ft 295 kts 81°
2026-05-05 12:26 40.18920 95.09040 10321 ft 323 kts 109°
2026-05-05 12:26 40.17650 95.11572 10511 ft 348 kts 137°
2026-05-05 12:27 40.15499 95.13193 10640 ft 372 kts 163°
2026-05-05 12:27 40.12868 95.13688 10768 ft 392 kts 176°
2026-05-05 12:27 40.10125 95.13888 10929 ft 409 kts 177°
2026-05-05 12:27 40.07255 95.14057 11373 ft 416 kts 177°
2026-05-05 12:28 40.04349 95.14273 11946 ft 420 kts 176°
2026-05-05 12:28 40.01426 95.14564 12535 ft 423 kts 174°
2026-05-05 12:28 39.98503 95.15067 13122 ft 425 kts 166°
2026-05-05 12:28 39.95705 95.16326 13687 ft 427 kts 154°
2026-05-05 12:29 39.93148 95.18310 14182 ft 429 kts 142°
2026-05-05 12:29 39.90933 95.20923 14677 ft 431 kts 130°
2026-05-05 12:29 39.89162 95.24065 15152 ft 432 kts 118°
2026-05-05 12:29 39.87797 95.27551 15636 ft 434 kts 115°
2026-05-05 12:30 39.86476 95.31053 16086 ft 437 kts 115°
2026-05-05 12:30 39.85135 95.34618 16528 ft 440 kts 115°
2026-05-05 12:30 39.83782 95.38209 16951 ft 444 kts 115°
2026-05-05 12:30 39.82416 95.41821 17375 ft 447 kts 115°
2026-05-05 12:31 39.81035 95.45460 17784 ft 450 kts 115°
2026-05-05 12:31 39.79643 95.49115 18191 ft 453 kts 115°
2026-05-05 12:31 39.78239 95.52786 18534 ft 455 kts 115°
2026-05-05 12:31 39.76825 95.56482 18865 ft 458 kts 115°
2026-05-05 12:32 39.75429 95.60157 19186 ft 461 kts 115°
2026-05-05 12:32 39.74012 95.63911 19486 ft 464 kts 115°
2026-05-05 12:32 39.72589 95.67687 19785 ft 466 kts 115°
2026-05-05 12:32 39.71163 95.71482 20064 ft 469 kts 115°
2026-05-05 12:33 39.69728 95.75293 20344 ft 471 kts 115°
2026-05-05 12:33 39.68281 95.79125 20613 ft 474 kts 115°
2026-05-05 12:33 39.66822 95.82973 20874 ft 476 kts 115°
2026-05-05 12:33 39.65354 95.86837 21148 ft 478 kts 115°
2026-05-05 12:34 39.63879 95.90708 21420 ft 480 kts 115°
2026-05-05 12:34 39.62412 95.94549 21673 ft 482 kts 116°
2026-05-05 12:34 39.60919 95.98450 21921 ft 484 kts 116°
2026-05-05 12:34 39.59416 96.02375 22179 ft 486 kts 116°
2026-05-05 12:35 39.57910 96.06302 22425 ft 488 kts 116°
2026-05-05 12:35 39.56395 96.10249 22664 ft 490 kts 116°
2026-05-05 12:35 39.54872 96.14195 22889 ft 491 kts 116°
2026-05-05 12:35 39.53318 96.18151 23129 ft 492 kts 117°
2026-05-05 12:36 39.51750 96.22096 23356 ft 493 kts 117°
2026-05-05 12:36 39.50175 96.26050 23604 ft 494 kts 117°
2026-05-05 12:36 39.48605 96.29999 23859 ft 493 kts 117°
2026-05-05 12:36 39.47044 96.33945 24103 ft 493 kts 117°
2026-05-05 12:37 39.45483 96.37895 24338 ft 493 kts 117°
2026-05-05 12:37 39.43940 96.41788 24574 ft 492 kts 118°
2026-05-05 12:37 39.42379 96.45724 24831 ft 492 kts 118°
2026-05-05 12:37 39.40818 96.49653 25104 ft 491 kts 118°
2026-05-05 12:38 39.39257 96.53582 25376 ft 491 kts 118°
2026-05-05 12:38 39.37696 96.57498 25653 ft 490 kts 118°
2026-05-05 12:38 39.36137 96.61400 25932 ft 489 kts 119°
2026-05-05 12:38 39.34572 96.65307 26205 ft 489 kts 119°
2026-05-05 12:39 39.33005 96.69213 26462 ft 489 kts 119°
2026-05-05 12:39 39.31439 96.73113 26727 ft 489 kts 120°
2026-05-05 12:39 39.29888 96.76960 26991 ft 490 kts 120°
2026-05-05 12:39 39.28312 96.80854 27264 ft 490 kts 120°
2026-05-05 12:40 39.26736 96.84761 27534 ft 490 kts 120°
2026-05-05 12:40 39.25177 96.88657 27782 ft 490 kts 120°
2026-05-05 12:40 39.23625 96.92573 28063 ft 490 kts 120°
2026-05-05 12:40 39.22086 96.96498 28339 ft 490 kts 120°
2026-05-05 12:41 39.20559 97.00413 28629 ft 490 kts 120°
2026-05-05 12:41 39.19041 97.04287 28888 ft 491 kts 120°
2026-05-05 12:41 39.17491 97.08214 29112 ft 492 kts 120°
2026-05-05 12:41 39.15924 97.12141 29163 ft 497 kts 121°
2026-05-05 12:42 39.12719 97.20119 29169 ft 503 kts 121°
2026-05-05 12:42 39.09513 97.28140 29177 ft 505 kts 120°
2026-05-05 12:43 39.06298 97.36189 29192 ft 505 kts 121°
2026-05-05 12:43 39.03094 97.44181 29205 ft 506 kts 121°
2026-05-05 12:44 38.99862 97.52205 29203 ft 507 kts 121°
2026-05-05 12:44 38.96615 97.60272 29190 ft 507 kts 121°
2026-05-05 12:45 38.93352 97.68305 29184 ft 507 kts 121°
2026-05-05 12:45 38.90075 97.76331 29177 ft 508 kts 121°
2026-05-05 12:46 38.86831 97.84316 29173 ft 509 kts 121°
2026-05-05 12:46 38.83562 97.92372 29169 ft 509 kts 121°
2026-05-05 12:47 38.80267 98.00427 29168 ft 510 kts 121°
2026-05-05 12:47 38.76986 98.08412 29166 ft 510 kts 122°
2026-05-05 12:48 38.73659 98.16448 29165 ft 510 kts 122°
2026-05-05 12:48 38.70336 98.24478 29169 ft 511 kts 122°
2026-05-05 12:49 38.67014 98.32507 29164 ft 511 kts 122°
2026-05-05 12:49 38.63698 98.40542 29166 ft 511 kts 122°
2026-05-05 12:50 38.60384 98.48519 29165 ft 512 kts 122°
2026-05-05 12:50 38.57023 98.56546 29168 ft 512 kts 122°
2026-05-05 12:51 38.53658 98.64554 29167 ft 512 kts 122°
2026-05-05 12:51 38.50298 98.72586 29161 ft 513 kts 122°
2026-05-05 12:52 38.46960 98.80553 29158 ft 513 kts 122°
2026-05-05 12:52 38.43578 98.88544 29150 ft 513 kts 122°
2026-05-05 12:53 38.40200 98.96569 29140 ft 513 kts 122°
2026-05-05 12:53 38.36804 99.04558 29133 ft 513 kts 122°
2026-05-05 12:54 38.31732 99.16521 29120 ft 513 kts 122°
2026-05-05 12:55 38.28334 99.24513 29120 ft 514 kts 122°
2026-05-05 12:55 38.24921 99.32511 29126 ft 514 kts 122°
2026-05-05 12:56 38.21500 99.40478 29112 ft 514 kts 122°
2026-05-05 12:56 38.18085 99.48393 29115 ft 514 kts 122°
2026-05-05 12:57 38.14665 99.56357 29099 ft 514 kts 122°
2026-05-05 12:57 38.11243 99.64324 29089 ft 514 kts 122°
2026-05-05 12:58 38.07805 99.72274 29090 ft 514 kts 122°
2026-05-05 12:58 38.04347 99.80212 29079 ft 514 kts 122°
2026-05-05 12:59 38.00929 99.88094 29068 ft 514 kts 122°
2026-05-05 12:59 37.97463 99.96022 29068 ft 514 kts 122°
2026-05-05 13:00 37.92260 100.07916 29057 ft 515 kts 122°
2026-05-05 13:01 37.85318 100.23702 29047 ft 515 kts 122°
2026-05-05 13:01 37.81823 100.31622 29046 ft 515 kts 122°
2026-05-05 13:02 37.78924 100.38203 29043 ft 516 kts 122°
2026-05-05 13:02 37.74862 100.47403 29042 ft 516 kts 122°
2026-05-05 13:03 37.71348 100.55305 29043 ft 516 kts 122°
2026-05-05 13:03 37.67828 100.63207 29042 ft 517 kts 122°
2026-05-05 13:04 37.64316 100.71118 29041 ft 517 kts 122°
2026-05-05 13:04 37.61497 100.77780 29039 ft 518 kts 121°
2026-05-05 13:05 37.57633 100.87147 29030 ft 518 kts 121°
2026-05-05 13:05 37.54261 100.95176 29026 ft 518 kts 121°
2026-05-05 13:06 37.51440 101.01828 29011 ft 518 kts 121°
2026-05-05 13:06 37.48037 101.09810 29018 ft 517 kts 121°
2026-05-05 13:07 37.44093 101.19094 29011 ft 517 kts 121°
2026-05-05 13:07 37.41241 101.25770 29005 ft 517 kts 121°
2026-05-05 13:08 37.37854 101.33686 28987 ft 517 kts 121°
2026-05-05 13:08 37.34444 101.41644 28984 ft 517 kts 121°
2026-05-05 13:09 37.31024 101.49612 28972 ft 518 kts 120°
2026-05-05 13:09 37.28514 101.58057 28981 ft 522 kts 107°
2026-05-05 13:10 37.26526 101.66817 28976 ft 522 kts 108°
2026-05-05 13:10 37.24507 101.75568 28970 ft 523 kts 108°
2026-05-05 13:11 37.22486 101.84334 28973 ft 523 kts 108°
2026-05-05 13:11 37.20469 101.93095 28985 ft 523 kts 108°
2026-05-05 13:12 37.18450 102.01804 28994 ft 523 kts 108°
2026-05-05 13:12 37.16413 102.10550 28994 ft 523 kts 107°
2026-05-05 13:13 37.14373 102.19319 29007 ft 524 kts 108°
2026-05-05 13:13 37.12311 102.28070 29011 ft 524 kts 109°
2026-05-05 13:14 37.09202 102.36186 29025 ft 520 kts 124°
2026-05-05 13:14 37.05362 102.43868 29032 ft 520 kts 124°
2026-05-05 13:15 37.01529 102.51556 29028 ft 521 kts 124°
2026-05-05 13:15 36.97694 102.59242 29028 ft 521 kts 124°
2026-05-05 13:16 36.93869 102.66870 29019 ft 521 kts 124°
2026-05-05 13:16 36.90013 102.74543 29011 ft 522 kts 125°
2026-05-05 13:17 36.86145 102.82213 29002 ft 522 kts 125°
2026-05-05 13:17 36.82275 102.89876 28989 ft 522 kts 124°
2026-05-05 13:18 36.78981 102.98005 28979 ft 525 kts 118°
2026-05-05 13:18 36.75834 103.06162 28964 ft 526 kts 118°
2026-05-05 13:19 36.72651 103.14376 28944 ft 526 kts 118°
2026-05-05 13:19 36.69457 103.22579 28935 ft 527 kts 118°
2026-05-05 13:20 36.66251 103.30788 28931 ft 527 kts 118°
2026-05-05 13:20 36.63068 103.38940 28935 ft 527 kts 118°
2026-05-05 13:21 36.59855 103.47138 28950 ft 527 kts 118°
2026-05-05 13:21 36.56635 103.55339 28959 ft 527 kts 118°
2026-05-05 13:22 36.53376 103.63510 28959 ft 527 kts 120°
2026-05-05 13:22 36.49828 103.71409 28958 ft 526 kts 123°
2026-05-05 13:23 36.46036 103.79179 28946 ft 526 kts 124°
2026-05-05 13:23 36.42270 103.86960 28919 ft 527 kts 123°
2026-05-05 13:24 36.38580 103.94818 28894 ft 527 kts 122°
2026-05-05 13:24 36.34932 104.02645 28863 ft 527 kts 122°
2026-05-05 13:25 36.31239 104.10502 28860 ft 527 kts 123°
2026-05-05 13:25 36.27515 104.18346 28852 ft 528 kts 123°
2026-05-05 13:26 36.23468 104.25903 28857 ft 523 kts 135°
2026-05-05 13:26 36.20858 104.28994 28859 ft 517 kts 146°
2026-05-05 13:26 36.17899 104.31467 28861 ft 510 kts 156°
2026-05-05 13:27 36.11397 104.34389 28870 ft 495 kts 175°
2026-05-05 13:27 36.04633 104.34892 28876 ft 485 kts 185°
2026-05-05 13:28 35.97876 104.34991 28885 ft 485 kts 185°
2026-05-05 13:28 35.91124 104.35108 28890 ft 485 kts 185°
2026-05-05 13:29 35.84422 104.35227 28897 ft 485 kts 185°
2026-05-05 13:29 35.77677 104.35334 28896 ft 485 kts 185°
2026-05-05 13:30 35.70939 104.35454 28897 ft 484 kts 185°
2026-05-05 13:30 35.64207 104.35562 28899 ft 484 kts 185°
2026-05-05 13:31 35.57479 104.35654 28902 ft 483 kts 185°
2026-05-05 13:31 35.50804 104.35760 28893 ft 483 kts 185°
2026-05-05 13:32 35.44090 104.35866 28892 ft 482 kts 185°
2026-05-05 13:32 35.37382 104.35966 28888 ft 482 kts 184°
2026-05-05 13:33 35.30669 104.36080 28880 ft 482 kts 184°
2026-05-05 13:33 35.24016 104.36195 28877 ft 482 kts 184°
2026-05-05 13:34 35.17316 104.36303 28872 ft 481 kts 184°
2026-05-05 13:34 35.10619 104.36401 28863 ft 481 kts 184°
2026-05-05 13:35 35.03925 104.36498 28853 ft 481 kts 184°
2026-05-05 13:35 34.97242 104.36601 28847 ft 481 kts 184°
2026-05-05 13:36 34.90598 104.36713 28843 ft 480 kts 184°
2026-05-05 13:36 34.83913 104.36835 28835 ft 480 kts 184°
2026-05-05 13:37 34.77233 104.36943 28832 ft 480 kts 184°
2026-05-05 13:37 34.70551 104.37043 28830 ft 480 kts 184°
2026-05-05 13:38 34.63910 104.37143 28835 ft 480 kts 184°
2026-05-05 13:38 34.57222 104.37245 28838 ft 481 kts 183°
2026-05-05 13:39 34.50538 104.37354 28827 ft 480 kts 183°
2026-05-05 13:39 34.43855 104.37464 28838 ft 481 kts 183°
2026-05-05 13:40 34.37162 104.37573 28844 ft 481 kts 183°
2026-05-05 13:40 34.30516 104.37675 28840 ft 481 kts 183°
2026-05-05 13:41 34.23820 104.37772 28835 ft 481 kts 183°
2026-05-05 13:41 34.17130 104.37878 28831 ft 481 kts 183°
2026-05-05 13:42 34.10428 104.37983 28832 ft 482 kts 183°
2026-05-05 13:42 34.03775 104.38084 28827 ft 482 kts 183°
2026-05-05 13:43 33.97075 104.38184 28823 ft 482 kts 184°
2026-05-05 13:43 33.90364 104.38285 28820 ft 482 kts 183°
2026-05-05 13:44 33.83647 104.38401 28827 ft 483 kts 183°
2026-05-05 13:44 33.76937 104.38502 28836 ft 483 kts 184°
2026-05-05 13:45 33.70270 104.38599 28836 ft 483 kts 183°
2026-05-05 13:45 33.63536 104.38893 28845 ft 487 kts 176°
2026-05-05 13:46 33.56996 104.41241 28853 ft 498 kts 158°
2026-05-05 13:46 33.50985 104.45475 28852 ft 501 kts 153°
2026-05-05 13:47 33.45041 104.49747 28857 ft 502 kts 153°
2026-05-05 13:47 33.38883 104.53576 28856 ft 496 kts 164°
2026-05-05 13:48 33.32221 104.55260 28858 ft 485 kts 181°
2026-05-05 13:48 33.25531 104.55675 28870 ft 485 kts 181°
2026-05-05 13:49 33.18787 104.56089 28875 ft 485 kts 181°
2026-05-05 13:49 33.12043 104.56517 28887 ft 485 kts 181°
2026-05-05 13:50 33.05299 104.56961 28898 ft 485 kts 181°
2026-05-05 13:50 32.98593 104.57394 28902 ft 486 kts 181°
2026-05-05 13:51 32.91846 104.57812 28914 ft 485 kts 181°
2026-05-05 13:51 32.85102 104.58233 28918 ft 485 kts 181°
2026-05-05 13:52 32.78354 104.58668 28913 ft 485 kts 181°
2026-05-05 13:52 32.71656 104.59066 28926 ft 485 kts 182°
2026-05-05 13:53 32.64917 104.59345 28925 ft 485 kts 182°
2026-05-05 13:53 32.58172 104.59607 28934 ft 485 kts 182°
2026-05-05 13:54 32.51417 104.59909 28933 ft 486 kts 182°
2026-05-05 13:54 32.44708 104.60230 28683 ft 487 kts 182°
2026-05-05 13:55 32.41337 104.60390 28254 ft 484 kts 182°
2026-05-05 13:55 32.37965 104.60549 27995 ft 486 kts 182°
2026-05-05 13:55 32.34582 104.60725 27742 ft 487 kts 181°
2026-05-05 13:55 32.31195 104.60916 27482 ft 488 kts 181°
2026-05-05 13:56 32.27807 104.61114 27229 ft 488 kts 181°
2026-05-05 13:56 32.24408 104.61310 26976 ft 489 kts 181°
2026-05-05 13:56 32.21011 104.61500 26727 ft 489 kts 181°
2026-05-05 13:56 32.17614 104.61685 26476 ft 490 kts 181°
2026-05-05 13:57 32.14258 104.61866 26237 ft 490 kts 181°
2026-05-05 13:57 32.10852 104.62048 25996 ft 490 kts 181°
2026-05-05 13:57 32.07442 104.62229 25756 ft 490 kts 181°
2026-05-05 13:57 32.04030 104.62413 25513 ft 491 kts 181°
2026-05-05 13:58 32.00619 104.62600 25279 ft 491 kts 181°
2026-05-05 13:58 31.97203 104.62786 25044 ft 492 kts 181°
2026-05-05 13:58 31.93783 104.62971 24810 ft 492 kts 181°
2026-05-05 13:58 31.90357 104.63158 24574 ft 493 kts 180°
2026-05-05 13:59 31.83558 104.63533 24127 ft 491 kts 180°
2026-05-05 13:59 31.80154 104.63720 23893 ft 490 kts 180°
2026-05-05 14:00 31.73371 104.64101 23447 ft 486 kts 180°
2026-05-05 14:00 31.69994 104.64311 23208 ft 484 kts 180°
2026-05-05 14:00 31.66634 104.64528 22371 ft 483 kts 179°
2026-05-05 14:00 31.63302 104.64743 21596 ft 474 kts 179°
2026-05-05 14:01 31.60051 104.64950 20898 ft 464 kts 179°
2026-05-05 14:01 31.56897 104.65145 20161 ft 457 kts 179°
2026-05-05 14:01 31.53742 104.65340 19434 ft 451 kts 179°
2026-05-05 14:01 31.50635 104.65535 18740 ft 445 kts 179°
2026-05-05 14:02 31.47560 104.65729 18079 ft 439 kts 179°
2026-05-05 14:02 31.44527 104.65922 17341 ft 434 kts 179°
2026-05-05 14:02 31.41537 104.66111 16659 ft 427 kts 179°
2026-05-05 14:02 31.38586 104.66283 16011 ft 421 kts 179°
2026-05-05 14:03 31.35721 104.66374 15380 ft 414 kts 180°
2026-05-05 14:03 31.32860 104.66406 14778 ft 409 kts 181°
2026-05-05 14:03 31.30036 104.66408 14185 ft 403 kts 181°
2026-05-05 14:03 31.27255 104.66405 13605 ft 398 kts 181°
2026-05-05 14:04 31.24514 104.66220 12970 ft 392 kts 189°
2026-05-05 14:04 31.21880 104.65493 12286 ft 388 kts 198°
2026-05-05 14:04 31.19391 104.64318 11724 ft 386 kts 203°
2026-05-05 14:04 31.16916 104.63081 11540 ft 388 kts 202°
2026-05-05 14:05 31.14435 104.61849 11529 ft 388 kts 202°
2026-05-05 14:05 31.11975 104.60634 11533 ft 389 kts 202°
2026-05-05 14:05 31.09485 104.59403 11536 ft 389 kts 202°
2026-05-05 14:05 31.06995 104.58168 11532 ft 389 kts 202°
2026-05-05 14:06 31.04508 104.56934 11530 ft 389 kts 202°
2026-05-05 14:06 31.02012 104.55692 11535 ft 389 kts 202°
2026-05-05 14:06 30.99527 104.54454 11527 ft 389 kts 202°
2026-05-05 14:06 30.97034 104.53214 11189 ft 389 kts 202°
2026-05-05 14:07 30.94536 104.51973 10447 ft 388 kts 202°
2026-05-05 14:07 30.92078 104.50751 10145 ft 383 kts 202°
2026-05-05 14:07 30.89657 104.49549 10055 ft 383 kts 202°
2026-05-05 14:07 30.87207 104.48337 9951 ft 383 kts 202°
2026-05-05 14:08 30.84757 104.47127 9841 ft 382 kts 202°
2026-05-05 14:08 30.82310 104.45922 9729 ft 382 kts 202°
2026-05-05 14:08 30.79862 104.44715 9612 ft 382 kts 202°
2026-05-05 14:08 30.77420 104.43512 9487 ft 381 kts 202°
2026-05-05 14:09 30.74981 104.42308 9355 ft 380 kts 202°
2026-05-05 14:09 30.72546 104.41106 9232 ft 380 kts 202°
2026-05-05 14:09 30.70113 104.39904 9098 ft 380 kts 202°
2026-05-05 14:09 30.67708 104.38719 8974 ft 380 kts 202°
2026-05-05 14:10 30.65272 104.37520 8848 ft 380 kts 202°
2026-05-05 14:10 30.62857 104.36331 8719 ft 370 kts 202°
2026-05-05 14:10 30.60555 104.35196 8590 ft 350 kts 202°
2026-05-05 14:10 30.58371 104.34120 8459 ft 332 kts 202°
2026-05-05 14:11 30.56299 104.33102 8339 ft 316 kts 202°
2026-05-05 14:11 30.54341 104.32068 8212 ft 303 kts 210°
2026-05-05 14:11 30.52796 104.30498 8094 ft 291 kts 231°
2026-05-05 14:11 30.51883 104.28490 7971 ft 284 kts 251°
2026-05-05 14:12 30.51566 104.26232 7844 ft 285 kts 262°
2026-05-05 14:12 30.51365 104.23949 7748 ft 284 kts 262°
2026-05-05 14:12 30.51161 104.21671 7622 ft 284 kts 262°
2026-05-05 14:12 30.50953 104.19393 7501 ft 284 kts 262°
2026-05-05 14:13 30.50744 104.17115 7387 ft 284 kts 262°
2026-05-05 14:13 30.50536 104.14846 7266 ft 283 kts 263°
2026-05-05 14:13 30.50327 104.12573 7148 ft 283 kts 263°
2026-05-05 14:13 30.50122 104.10336 7035 ft 283 kts 263°
2026-05-05 14:14 30.49913 104.08070 6918 ft 283 kts 263°
2026-05-05 14:14 30.49702 104.05806 6804 ft 282 kts 263°
2026-05-05 14:14 30.49491 104.03544 6691 ft 282 kts 263°
2026-05-05 14:14 30.49281 104.01284 6567 ft 282 kts 263°
2026-05-05 14:15 30.49071 103.99034 6454 ft 282 kts 263°
2026-05-05 14:15 30.48861 103.96769 6330 ft 281 kts 263°
2026-05-05 14:15 30.48652 103.94513 6222 ft 281 kts 263°
2026-05-05 14:15 30.48446 103.92295 6105 ft 281 kts 263°
2026-05-05 14:16 30.48238 103.90044 5980 ft 281 kts 263°
2026-05-05 14:16 30.48028 103.87794 5855 ft 280 kts 263°
2026-05-05 14:16 30.47816 103.85549 5731 ft 280 kts 263°
2026-05-05 14:16 30.47604 103.83306 5601 ft 280 kts 263°
2026-05-05 14:17 30.47392 103.81068 5489 ft 279 kts 262°
2026-05-05 14:17 30.46841 103.78927 5353 ft 278 kts 242°
2026-05-05 14:17 30.45704 103.77138 5233 ft 274 kts 223°
2026-05-05 14:17 30.44188 103.75926 5108 ft 259 kts 204°
2026-05-05 14:18 30.42578 103.75181 4993 ft 246 kts 201°
2026-05-05 14:18 30.41024 103.74474 4913 ft 234 kts 201°
2026-05-05 14:18 30.39517 103.73785 4911 ft 232 kts 201°
2026-05-05 14:18 30.38014 103.73095 4906 ft 232 kts 201°
2026-05-05 14:19 30.36512 103.72404 4904 ft 232 kts 201°
2026-05-05 14:19 30.35006 103.71713 4904 ft 233 kts 201°
2026-05-05 14:19 30.33504 103.71026 4904 ft 233 kts 201°
2026-05-05 14:19 30.31996 103.70336 4900 ft 233 kts 201°
2026-05-05 14:20 30.30490 103.69647 4897 ft 233 kts 201°
2026-05-05 14:20 30.29007 103.68967 4898 ft 231 kts 201°
2026-05-05 14:20 30.27566 103.68296 4891 ft 216 kts 201°
2026-05-05 14:20 30.26196 103.67657 4894 ft 211 kts 201°
2026-05-05 14:21 30.24841 103.67023 4896 ft 210 kts 201°
2026-05-05 14:21 30.23492 103.66392 4899 ft 209 kts 201°
2026-05-05 14:21 30.22145 103.65761 4897 ft 209 kts 201°
2026-05-05 14:21 30.20793 103.65132 4897 ft 209 kts 201°
2026-05-05 14:22 30.19441 103.64525 4894 ft 209 kts 195°
2026-05-05 14:22 30.18044 103.64566 4902 ft 206 kts 155°
2026-05-05 14:22 30.17011 103.65655 4894 ft 205 kts 116°
2026-05-05 14:22 30.16453 103.67174 4893 ft 206 kts 111°
2026-05-05 14:23 30.15916 103.68714 4896 ft 207 kts 111°
2026-05-05 14:23 30.15379 103.70254 4895 ft 207 kts 111°
2026-05-05 14:23 30.14841 103.71796 4897 ft 207 kts 111°
2026-05-05 14:23 30.14301 103.73338 4878 ft 207 kts 111°
2026-05-05 14:24 30.14057 103.74929 4783 ft 197 kts 79°
2026-05-05 14:24 30.14677 103.76252 4658 ft 185 kts 40°
2026-05-05 14:24 30.15793 103.76872 4524 ft 175 kts 16°
2026-05-05 14:24 30.16893 103.77319 4400 ft 165 kts 25°
2026-05-05 14:25 30.17907 103.77847 4287 ft 155 kts 24°
2026-05-05 14:25 30.18888 103.78330 4161 ft 151 kts 23°
2026-05-05 14:25 30.19853 103.78788 4046 ft 150 kts 22°
2026-05-05 14:25 30.20816 103.79238 3922 ft 149 kts 22°
2026-05-05 14:26 30.21772 103.79682 3886 ft 147 kts 22°
2026-05-05 14:26 30.22732 103.80127 3928 ft 149 kts 22°
2026-05-05 14:26 30.23693 103.80571 3930 ft 149 kts 22°
2026-05-05 14:26 30.24641 103.81009 3930 ft 148 kts 22°
2026-05-05 14:27 30.25599 103.81452 3933 ft 148 kts 22°
2026-05-05 14:27 30.26558 103.81895 3934 ft 149 kts 22°
2026-05-05 14:27 30.27518 103.82339 3936 ft 149 kts 22°
2026-05-05 14:27 30.28479 103.82783 3938 ft 149 kts 22°
2026-05-05 14:28 30.29440 103.83228 3939 ft 149 kts 22°
2026-05-05 14:28 30.30401 103.83673 3941 ft 149 kts 22°
2026-05-05 14:28 30.31363 103.84118 3943 ft 149 kts 22°
2026-05-05 14:28 30.32327 103.84564 3946 ft 149 kts 22°
2026-05-05 14:29 30.33277 103.85003 3946 ft 149 kts 22°
2026-05-05 14:29 30.34242 103.85450 3947 ft 149 kts 22°
2026-05-05 14:29 30.35206 103.85897 3952 ft 149 kts 22°
2026-05-05 14:29 30.36171 103.86344 3952 ft 149 kts 22°
2026-05-05 14:30 30.37136 103.86791 3953 ft 150 kts 22°
2026-05-05 14:30 30.38100 103.87238 3955 ft 150 kts 22°
2026-05-05 14:30 30.39068 103.87686 3957 ft 150 kts 22°
2026-05-05 14:30 30.40038 103.88136 3956 ft 150 kts 22°
2026-05-05 14:31 30.40997 103.88580 3862 ft 150 kts 22°
2026-05-05 14:31 30.41965 103.89030 3712 ft 150 kts 22°
2026-05-05 14:31 30.42927 103.89476 3533 ft 149 kts 22°
2026-05-05 14:31 30.43886 103.89921 3351 ft 148 kts 22°
2026-05-05 14:32 30.44844 103.90365 3165 ft 148 kts 22°
2026-05-05 14:32 30.45798 103.90808 2987 ft 148 kts 22°
2026-05-05 14:32 30.46751 103.91251 2800 ft 147 kts 22°
2026-05-05 14:32 30.47699 103.91691 2613 ft 147 kts 22°
2026-05-05 14:33 30.48645 103.92130 2430 ft 146 kts 22°
2026-05-05 14:33 30.49581 103.92565 2236 ft 145 kts 22°
2026-05-05 14:33 30.50501 103.92993 2049 ft 144 kts 21°
2026-05-05 14:33 30.51388 103.93405 1858 ft 143 kts 21°
2026-05-05 14:34 30.52103 103.93737 1707 ft 143 kts 21°
2026-05-05 14:34 30.52794 103.94059 1664 ft 122 kts 22°
2026-05-05 14:34 30.53379 103.94331 1668 ft 79 kts 22°
2026-05-05 14:34 30.53795 103.94526 1653 ft 51 kts 22°
2026-05-05 14:35 30.54043 103.94619 1650 ft 25 kts 358°
2026-05-05 14:35 30.54135 103.94618 1649 ft 1 kts 356°
2026-05-05 14:35 30.54186 103.94615 1648 ft 21 kts 357°
2026-05-05 14:35 30.54355 103.94587 1647 ft 25 kts 354°
2026-05-05 14:36 30.54462 103.94609 1647 ft 0 kts 21°
2026-05-05 14:36 30.54518 103.94639 1647 ft 17 kts 25°